Location: Unspecified
(0.0000°N, 0.0000°E)
Time: 17:50:59
(UTC+00:00)

Hubble Space Telescope - Pass Details

Date: 08 December 2018
Orbit: 537 x 540 km, 28.5° (Epoch: 11 December)

Event Time Altitude Azimuth Distance (km) Brightness Sun altitude
Rises 19:38:08 0° 211° (SSW) 2,678 5.2 -24.3°
Reaches altitude 10° 19:41:21 10° 185° (S) 1,787 3.8 -25.0°
Enters shadow 19:42:51 13° 164° (SSE) 1,577 3.2 -25.4°
